Miscellaneous Local Product
Issued by NWS Hastings, NE

Home | Current Version | Previous Version | Text Only | Print | Product List | Glossary Off
Versions: 1 2 3 4 5 6 7 8 9 10 11 12 13 14 15 16 17 18 19 20 21 22 23 24 25 26 27 28 29 30 31 32 33 34 35 36 37 38 39 40 41 42 43 44 45 46 47 48 49 50

865
AXUS43 KGID 082302
MISGRI

GID CWA HOURLY WEATHER ROUNDUP
NATIONAL WEATHER SERVICE HASTINGS NE
500 PM CST MON FEB 08 2016

NOTE: "FAIR" INDICATES FEW OR NO CLOUDS BELOW 12,000 FEET WITH NO
SIGNIFICANT WEATHER AND/OR OBSTRUCTIONS TO VISIBILITY.

...SOUTH CENTRAL NEBRASKA...

CITY           SKY/WX    TMP DP  RH WIND       PRES   REMARKS
GRAND ISLAND   CLOUDY    35  17  47 NW23G31   30.18R WCI  23
HASTINGS       CLEAR     35  18  49 NW18G26   30.18S WCI  24
ORD            CLEAR     33  17  51 NW22G35   30.18R WCI  21
YORK           PTCLDY    32  23  69 NW25G33   30.14S WCI  19
AURORA         CLEAR     34  20  56 N22       30.17R WCI  22
LEXINGTON      CLOUDY    36  17  45 NW18      30.22S WCI  25
HOLDREGE       CLOUDY    34  18  50 NW10G18   30.21S WCI  26
HEBRON         CLEAR     36  22  57 NW12G24   30.17R WCI  27

...NEBRASKA PANHANDLE...

CITY           SKY/WX    TMP DP  RH WIND       PRES   REMARKS
CHADRON        CLOUDY    41  23  48 W10       30.27F
ALLIANCE       CLOUDY    36  24  62 NW8       30.25F WCI  30
SCOTTSBLUFF    CLOUDY    41  28  60 NW12      30.29F
SIDNEY         CLOUDY    39  27  62 NW15      30.27F WCI  31

...WESTERN AND NORTH CENTRAL NEBRASKA...

CITY           SKY/WX    TMP DP  RH WIND       PRES   REMARKS
VALENTINE      CLOUDY    35  16  45 NW17G24   30.23S WCI  25
AINSWORTH      CLEAR     35  14  42 NW18G31   30.21S WCI  24
ONEILL         PTCLDY    33  19  55 NW32G41   30.18S WCI  19
BROKEN BOW     CLEAR     35  13  40 N26G35    30.19S WCI  22
IMPERIAL       CLOUDY    36  19  50 NW17      30.27F WCI  26
NORTH PLATTE   CLOUDY    35  16  45 NW14      30.25S WCI  26
MCCOOK         SUNNY     36  19  50 NW15      30.27S WCI  27

...EASTERN NEBRASKA...

CITY           SKY/WX    TMP DP  RH WIND       PRES   REMARKS
NORFOLK        CLEAR     33  20  58 NW28G37   30.11R WCI  20
SO SIOUX CITY  CLEAR     28  18  66 N29       30.10R WCI  12
TEKAMAH        CLEAR     30  18  60 NW22G30   30.10S WCI  17
COLUMBUS       CLEAR     34  14  44 NW28G38   30.12R WCI  20
ALBION         PTCLDY    33  20  59 NW25G31   30.14R WCI  19
OMAHA EPPLEY   PTCLDY    28  18  66 N23G32    30.10R WCI  14
OFFUTT AFB     PTCLDY    30  17  59 NW21G28   30.10R WCI  17
MILLARD        CLEAR     32  20  61 N9G20     30.11R WCI  24
LINCOLN        CLEAR     34  20  56 N20G29    30.14R WCI  23
NEBRASKA CITY  CLEAR     31  17  56 N32G39    30.10R WCI  16
BEATRICE       CLEAR     35  21  58 NW29      30.14S WCI  21
FALLS CITY     MOCLDY    33  17  51 NW18G31   30.11R WCI  22

...NORTHERN KANSAS...

CITY           SKY/WX    TMP DP  RH WIND       PRES   REMARKS
GOODLAND       CLOUDY    37  23  56 NW15      30.28S WCI  28
HILL CITY      SUNNY     37  20  50 NW13      30.28S WCI  29
NORTON         CLEAR     36  19  51 NW12      30.25R WCI  27
PHILLIPSBURG   MOSUNNY   37  19  48 NW14G21   30.25S WCI  29
SMITH CENTER   SUNNY     34  19  55 NW16G24   30.23S WCI  23
BELOIT         CLEAR     37  18  44 NW21G28   30.22S WCI  27
HAYS           MOSUNNY   37  12  35 NW20G29   30.27S WCI  27
RUSSELL        MOSUNNY   38  20  48 NW21G30   30.25S WCI  28
CONCORDIA      CLEAR     37  17  44 NW21G33   30.19R WCI  26
SALINA         CLEAR     42  15  33 NW25G39   30.20S
TOPEKA         PTCLDY    37  14  38 NW20G31   30.13R WCI  27



USA.gov is the U.S. government's official web portal to all federal, state and local government web resources and services.